When you browse on this site, cookies collect data to enhance your experience and personalize the content and advertising you see.
Visit our Privacy Policy to learn more. By continuing to use the site, you agree to this use of cookies and data.
  • In Österreich
  • Länderverzeichnis
  • Für 7 Tage
  • Wassertemperatur
  • Satellitenkarten
  • Wetterkarte
  • News
  • Widgets
  • user-avatar
    Anmelden

    Stündliche Wetter Quito

    Heute, 20 April, Samstag

    Zeit Temperatur Niederschläge Wind Luftdruck Luftfeuchtigkeit
    00:00 +19°C° 0.4 mm 1 m/S 623 mmHg 91%
    01:00 +18°C° 0 mm 1 m/S 623 mmHg 92%
    02:00 +18°C° 0.4 mm 1 m/S 623 mmHg 94%
    03:00 +18°C° 0.4 mm 1 m/S 623 mmHg 95%
    04:00 +16°C° 0.4 mm 1 m/S 622 mmHg 97%
    05:00 +16°C° 0 mm 0 m/S 623 mmHg 95%
    06:00 +16°C° 0 mm 0 m/S 623 mmHg 94%
    07:00 +17°C° 0 mm 0 m/S 624 mmHg 92%
    08:00 +21°C° 0 mm 1 m/S 624 mmHg 83%
    09:00 +23°C° 0 mm 2 m/S 624 mmHg 75%
    10:00 +24°C° 0 mm 3 m/S 625 mmHg 66%
    11:00 +25°C° 0 mm 3 m/S 624 mmHg 63%
    12:00 +26°C° 0 mm 3 m/S 624 mmHg 59%
    13:00 +27°C° 0 mm 2 m/S 624 mmHg 56%
    14:00 +27°C° 0.4 mm 2 m/S 623 mmHg 61%
    15:00 +26°C° 0.4 mm 2 m/S 623 mmHg 65%
    16:00 +25°C° 0.4 mm 2 m/S 622 mmHg 70%
    17:00 +24°C° 0.5 mm 2 m/S 622 mmHg 75%
    18:00 +22°C° 0.5 mm 1 m/S 622 mmHg 80%
    19:00 +20°C° 0.5 mm 1 m/S 622 mmHg 85%
    20:00 +20°C° 1.2 mm 1 m/S 622 mmHg 87%
    21:00 +20°C° 1.2 mm 1 m/S 622 mmHg 89%
    22:00 +17°C° 1.2 mm 0 m/S 623 mmHg 90%
    23:00 +17°C° 1.7 mm 0 m/S 623 mmHg 91%

    Morgen, 21 April, Sonntag

    Zeit Temperatur Niederschläge Wind Luftdruck Luftfeuchtigkeit
    00:00 +17°C° 1.7 mm 0 m/S 622 mmHg 91%
    01:00 +17°C° 1.7 mm 0 m/S 622 mmHg 92%
    02:00 +17°C° 0.3 mm 0 m/S 622 mmHg 91%
    03:00 +17°C° 0.3 mm 0 m/S 622 mmHg 91%
    04:00 +17°C° 0.3 mm 0 m/S 622 mmHg 90%
    05:00 +17°C° 0.5 mm 0 m/S 623 mmHg 90%
    06:00 +17°C° 0.5 mm 0 m/S 623 mmHg 89%
    07:00 +18°C° 0.5 mm 0 m/S 623 mmHg 88%
    08:00 +19°C° 1.3 mm 0 m/S 624 mmHg 85%
    09:00 +22°C° 1.3 mm 1 m/S 624 mmHg 81%
    10:00 +23°C° 1.3 mm 1 m/S 624 mmHg 78%
    11:00 +24°C° 0.8 mm 1 m/S 624 mmHg 76%
    12:00 +24°C° 0.8 mm 1 m/S 624 mmHg 74%
    13:00 +25°C° 0.8 mm 1 m/S 623 mmHg 71%
    14:00 +24°C° 0.7 mm 1 m/S 623 mmHg 75%
    15:00 +23°C° 0.7 mm 1 m/S 622 mmHg 79%
    16:00 +21°C° 0.7 mm 0 m/S 622 mmHg 82%
    17:00 +19°C° 1 mm 0 m/S 622 mmHg 86%
    18:00 +20°C° 1 mm 1 m/S 622 mmHg 89%
    19:00 +19°C° 1 mm 1 m/S 622 mmHg 92%
    20:00 +18°C° 0 mm 1 m/S 622 mmHg 92%
    21:00 +18°C° 0 mm 1 m/S 622 mmHg 93%
    22:00 +18°C° 0 mm 1 m/S 622 mmHg 93%
    23:00 +18°C° 0 mm 1 m/S 622 mmHg 93%

    übermorgen, 22 April, Montag

    Zeit Temperatur Niederschläge Wind Luftdruck Luftfeuchtigkeit
    00:00 +15°C° 0 mm 0 m/S 622 mmHg 92%
    01:00 +15°C° 0 mm 0 m/S 621 mmHg 92%
    02:00 +15°C° 0 mm 0 m/S 621 mmHg 92%
    03:00 +14°C° 0 mm 0 m/S 621 mmHg 93%
    04:00 +15°C° 0 mm 1 m/S 620 mmHg 93%
    05:00 +15°C° 0 mm 0 m/S 621 mmHg 91%
    06:00 +15°C° 0 mm 0 m/S 622 mmHg 90%
    07:00 +16°C° 0 mm 0 m/S 622 mmHg 88%
    08:00 +20°C° 0.4 mm 1 m/S 623 mmHg 84%
    09:00 +22°C° 0.4 mm 1 m/S 623 mmHg 80%
    10:00 +23°C° 0.4 mm 2 m/S 624 mmHg 76%
    11:00 +24°C° 1.4 mm 1 m/S 624 mmHg 74%
    12:00 +24°C° 1.4 mm 1 m/S 623 mmHg 72%
    13:00 +25°C° 1.4 mm 1 m/S 622 mmHg 70%
    14:00 +25°C° 0.7 mm 1 m/S 622 mmHg 70%
    15:00 +25°C° 0.7 mm 1 m/S 622 mmHg 69%
    16:00 +23°C° 0.7 mm 0 m/S 621 mmHg 69%
    17:00 +21°C° 0.6 mm 0 m/S 621 mmHg 75%
    18:00 +19°C° 0.6 mm 0 m/S 621 mmHg 81%
    19:00 +17°C° 0.6 mm 0 m/S 621 mmHg 86%
    20:00 +17°C° 0.5 mm 0 m/S 621 mmHg 87%
    21:00 +17°C° 0.5 mm 0 m/S 622 mmHg 88%
    22:00 +16°C° 0.5 mm 0 m/S 622 mmHg 89%
    23:00 +16°C° 0 mm 0 m/S 622 mmHg 89%

    23 April, Dienstag

    Zeit Temperatur Niederschläge Wind Luftdruck Luftfeuchtigkeit
    00:00 +16°C° 0 mm 0 m/S 622 mmHg 90%
    01:00 +16°C° 0 mm 0 m/S 621 mmHg 90%
    02:00 +16°C° 0 mm 0 m/S 621 mmHg 90%
    03:00 +15°C° 0 mm 0 m/S 621 mmHg 90%
    04:00 +15°C° 0 mm 0 m/S 620 mmHg 91%
    05:00 +16°C° 0 mm 0 m/S 621 mmHg 90%
    06:00 +16°C° 0 mm 0 m/S 622 mmHg 89%
    07:00 +17°C° 0 mm 0 m/S 622 mmHg 88%
    08:00 +19°C° 0.3 mm 0 m/S 623 mmHg 82%
    09:00 +21°C° 0.3 mm 0 m/S 624 mmHg 76%
    10:00 +25°C° 0.3 mm 1 m/S 625 mmHg 70%
    11:00 +26°C° 0.4 mm 1 m/S 624 mmHg 66%
    12:00 +27°C° 0.4 mm 1 m/S 624 mmHg 63%
    13:00 +27°C° 0.4 mm 1 m/S 623 mmHg 59%
    14:00 +26°C° 1.4 mm 1 m/S 623 mmHg 63%
    15:00 +26°C° 1.4 mm 1 m/S 622 mmHg 68%
    16:00 +25°C° 1.4 mm 1 m/S 621 mmHg 72%
    17:00 +23°C° 2.1 mm 1 m/S 622 mmHg 77%
    18:00 +19°C° 2.1 mm 0 m/S 622 mmHg 82%
    19:00 +17°C° 2.1 mm 0 m/S 622 mmHg 87%
    20:00 +17°C° 1 mm 0 m/S 622 mmHg 87%
    21:00 +17°C° 1 mm 0 m/S 623 mmHg 88%
    22:00 +17°C° 1 mm 0 m/S 623 mmHg 89%
    23:00 +16°C° 0.1 mm 0 m/S 623 mmHg 90%

    24 April, Mittwoch

    Zeit Temperatur Niederschläge Wind Luftdruck Luftfeuchtigkeit
    00:00 +16°C° 0.1 mm 0 m/S 622 mmHg 90%
    01:00 +16°C° 0.1 mm 0 m/S 622 mmHg 90%
    02:00 +16°C° 0 mm 0 m/S 622 mmHg 92%
    03:00 +15°C° 0 mm 0 m/S 622 mmHg 93%
    04:00 +15°C° 0 mm 0 m/S 621 mmHg 94%
    05:00 +15°C° 0 mm 0 m/S 622 mmHg 93%
    06:00 +16°C° 0 mm 0 m/S 623 mmHg 93%
    07:00 +16°C° 0 mm 0 m/S 623 mmHg 92%
    08:00 +20°C° 0.2 mm 1 m/S 624 mmHg 85%
    09:00 +22°C° 0.2 mm 1 m/S 624 mmHg 79%
    10:00 +24°C° 0.2 mm 2 m/S 625 mmHg 72%
    11:00 +25°C° 0.5 mm 2 m/S 624 mmHg 68%
    12:00 +26°C° 0.5 mm 2 m/S 624 mmHg 65%
    13:00 +26°C° 0.5 mm 2 m/S 623 mmHg 61%
    14:00 +26°C° 0.1 mm 2 m/S 623 mmHg 63%
    15:00 +26°C° 0.1 mm 2 m/S 623 mmHg 66%
    16:00 +26°C° 0.1 mm 2 m/S 622 mmHg 68%
    17:00 +24°C° 0.8 mm 1 m/S 623 mmHg 75%
    18:00 +22°C° 0.8 mm 1 m/S 623 mmHg 82%
    19:00 +20°C° 0.8 mm 1 m/S 623 mmHg 89%
    20:00 +20°C° 0.4 mm 1 m/S 623 mmHg 90%
    21:00 +18°C° 0.4 mm 0 m/S 623 mmHg 91%
    22:00 +17°C° 0.4 mm 0 m/S 623 mmHg 91%
    23:00 +17°C° 0.7 mm 0 m/S 623 mmHg 93%

    25 April, Donnerstag

    Zeit Temperatur Niederschläge Wind Luftdruck Luftfeuchtigkeit
    00:00 +17°C° 0.7 mm 0 m/S 623 mmHg 94%
    01:00 +16°C° 0.7 mm 0 m/S 623 mmHg 95%
    02:00 +16°C° 0.7 mm 0 m/S 622 mmHg 96%
    03:00 +16°C° 0.7 mm 0 m/S 622 mmHg 96%
    04:00 +16°C° 0.7 mm 0 m/S 622 mmHg 97%
    05:00 +16°C° 0.8 mm 0 m/S 623 mmHg 96%
    06:00 +16°C° 0.8 mm 0 m/S 623 mmHg 95%
    07:00 +19°C° 0.8 mm 1 m/S 624 mmHg 95%
    08:00 +20°C° 0.3 mm 1 m/S 624 mmHg 88%
    09:00 +21°C° 0.3 mm 2 m/S 625 mmHg 81%
    10:00 +24°C° 0.3 mm 3 m/S 625 mmHg 74%
    11:00 +24°C° 0.8 mm 3 m/S 624 mmHg 74%
    12:00 +24°C° 0.8 mm 2 m/S 624 mmHg 75%
    13:00 +25°C° 0.8 mm 2 m/S 623 mmHg 76%
    14:00 +24°C° 0.7 mm 2 m/S 623 mmHg 76%
    15:00 +24°C° 0.7 mm 2 m/S 623 mmHg 76%
    16:00 +24°C° 0.7 mm 2 m/S 622 mmHg 77%
    17:00 +23°C° 1 mm 1 m/S 622 mmHg 81%
    18:00 +21°C° 1 mm 1 m/S 622 mmHg 86%
    19:00 +19°C° 1 mm 1 m/S 622 mmHg 90%
    20:00 +19°C° 0.6 mm 1 m/S 623 mmHg 90%
    21:00 +17°C° 0.6 mm 0 m/S 623 mmHg 90%
    22:00 +17°C° 0.6 mm 0 m/S 623 mmHg 90%
    23:00 +17°C° 0.6 mm 0 m/S 623 mmHg 90%
    Mehr zeigen